MCX4571 KPNS-KMIA

Flight info

Callsign MCX4571
Flight time 1h 11m
Altitude 33000
Route JAYDI NICKI Q81 ENDEW SRQ SABEE FROGZ5
Aircraft CRJ7/M-SDFGIRWY/S

Departure

Time 2026-04-26 14:03
Airport Pensacola International Airport (KPNS)

Arrival

Time 2026-04-26 15:15
Airport Miami International Airport (KMIA)
Time Latitude Longitude Altitude Speed Heading
2026-04-26 13:36 30.47489 -87.19277 127 ft 0 kts 27°
2026-04-26 13:53 30.47475 -87.19285 122 ft 4 kts 29°
2026-04-26 13:53 30.47450 -87.19295 126 ft 4 kts 356°
2026-04-26 13:54 30.47428 -87.19290 124 ft 4 kts 343°
2026-04-26 13:54 30.47407 -87.19275 127 ft 4 kts 300°
2026-04-26 13:54 30.47403 -87.19249 123 ft 4 kts 274°
2026-04-26 13:55 30.47402 -87.19234 126 ft 0 kts 274°
2026-04-26 13:58 30.47402 -87.19236 126 ft 1 kts 274°
2026-04-26 13:58 30.47403 -87.19254 122 ft 4 kts 265°
2026-04-26 13:58 30.47386 -87.19288 127 ft 6 kts 217°
2026-04-26 13:59 30.47346 -87.19296 127 ft 6 kts 130°
2026-04-26 13:59 30.47338 -87.19237 126 ft 9 kts 82°
2026-04-26 13:59 30.47353 -87.19155 125 ft 12 kts 76°
2026-04-26 14:00 30.47569 -87.19032 126 ft 18 kts 346°
2026-04-26 14:00 30.47699 -87.19068 126 ft 20 kts 346°
2026-04-26 14:00 30.47781 -87.19091 123 ft 17 kts 346°
2026-04-26 14:01 30.47935 -87.19132 126 ft 17 kts 348°
2026-04-26 14:01 30.48030 -87.19155 125 ft 14 kts 347°
2026-04-26 14:01 30.48132 -87.19183 124 ft 16 kts 346°
2026-04-26 14:01 30.48206 -87.19203 127 ft 10 kts 352°
2026-04-26 14:02 30.48262 -87.19162 128 ft 11 kts 67°
2026-04-26 14:02 30.48261 -87.19071 126 ft 13 kts 130°
2026-04-26 14:02 30.48172 -87.19033 127 ft 15 kts 166°
2026-04-26 14:02 30.47916 -87.18966 127 ft 75 kts 167°
2026-04-26 14:03 30.47152 -87.18762 124 ft 147 kts 167°
2026-04-26 14:03 30.46025 -87.18468 450 ft 177 kts 167°
2026-04-26 14:03 30.44806 -87.18109 1183 ft 189 kts 167°
2026-04-26 14:03 30.43384 -87.17700 1399 ft 229 kts 167°
2026-04-26 14:04 30.41803 -87.17126 1977 ft 248 kts 152°
2026-04-26 14:04 30.40497 -87.15776 2711 ft 256 kts 130°
2026-04-26 14:04 30.39364 -87.14160 3564 ft 261 kts 128°
2026-04-26 14:04 30.38259 -87.12463 4378 ft 266 kts 124°
2026-04-26 14:05 30.37207 -87.10670 5176 ft 272 kts 123°
2026-04-26 14:05 30.36167 -87.08821 5958 ft 277 kts 122°
2026-04-26 14:05 30.35135 -87.06953 6704 ft 281 kts 121°
2026-04-26 14:05 30.34086 -87.05030 7436 ft 284 kts 121°
2026-04-26 14:06 30.33044 -87.03063 8180 ft 287 kts 118°
2026-04-26 14:06 30.32263 -87.00931 8924 ft 288 kts 104°
2026-04-26 14:06 30.31725 -86.98691 9681 ft 290 kts 101°
2026-04-26 14:06 30.31211 -86.96408 10266 ft 301 kts 102°
2026-04-26 14:07 30.30831 -86.94820 10394 ft 317 kts 103°
2026-04-26 14:07 30.30162 -86.92295 10675 ft 337 kts 105°
2026-04-26 14:07 30.29415 -86.89645 11031 ft 354 kts 105°
2026-04-26 14:07 30.28402 -86.85992 11833 ft 362 kts 105°
2026-04-26 14:08 30.27879 -86.84104 12289 ft 366 kts 105°
2026-04-26 14:08 30.27107 -86.81312 12941 ft 371 kts 106°
2026-04-26 14:08 30.26318 -86.78460 13596 ft 375 kts 106°
2026-04-26 14:08 30.25515 -86.75569 14211 ft 379 kts 106°
2026-04-26 14:09 30.24707 -86.72649 14822 ft 383 kts 106°
2026-04-26 14:09 30.23890 -86.69702 15429 ft 387 kts 107°
2026-04-26 14:09 30.23060 -86.66720 16033 ft 391 kts 107°
2026-04-26 14:09 30.22224 -86.63713 16597 ft 395 kts 107°
2026-04-26 14:10 30.21378 -86.60678 17163 ft 398 kts 107°
2026-04-26 14:10 30.20525 -86.57615 17713 ft 402 kts 107°
2026-04-26 14:10 30.19665 -86.54532 18250 ft 405 kts 107°
2026-04-26 14:10 30.18796 -86.51423 18712 ft 408 kts 107°
2026-04-26 14:11 30.17039 -86.45125 19623 ft 415 kts 107°
2026-04-26 14:11 30.16145 -86.41937 20086 ft 418 kts 107°
2026-04-26 14:11 30.15248 -86.38729 20501 ft 422 kts 107°
2026-04-26 14:12 30.14350 -86.35525 20912 ft 425 kts 107°
2026-04-26 14:12 30.13433 -86.32261 21326 ft 428 kts 107°
2026-04-26 14:12 30.12511 -86.28976 21711 ft 432 kts 107°
2026-04-26 14:12 30.11576 -86.25660 22107 ft 435 kts 107°
2026-04-26 14:13 30.09692 -86.18965 22857 ft 441 kts 107°
2026-04-26 14:13 30.08738 -86.15583 23226 ft 444 kts 107°
2026-04-26 14:13 30.07774 -86.12173 23587 ft 447 kts 107°
2026-04-26 14:14 30.06805 -86.08751 23904 ft 450 kts 107°
2026-04-26 14:14 30.05829 -86.05306 24223 ft 452 kts 107°
2026-04-26 14:14 30.04848 -86.01848 24537 ft 454 kts 107°
2026-04-26 14:14 30.03857 -85.98368 24839 ft 456 kts 107°
2026-04-26 14:15 30.02880 -85.94922 25129 ft 458 kts 107°
2026-04-26 14:15 30.01883 -85.91419 25412 ft 460 kts 107°
2026-04-26 14:15 30.00883 -85.87905 25685 ft 462 kts 108°
2026-04-26 14:15 29.99874 -85.84373 25956 ft 464 kts 108°
2026-04-26 14:16 29.98864 -85.80830 26217 ft 466 kts 108°
2026-04-26 14:16 29.97844 -85.77269 26468 ft 468 kts 108°
2026-04-26 14:16 29.96822 -85.73697 26723 ft 470 kts 108°
2026-04-26 14:16 29.95794 -85.70108 26977 ft 472 kts 108°
2026-04-26 14:17 29.94763 -85.66512 27214 ft 474 kts 108°
2026-04-26 14:17 29.93738 -85.62940 27457 ft 475 kts 108°
2026-04-26 14:17 29.92696 -85.59318 27699 ft 477 kts 108°
2026-04-26 14:17 29.91651 -85.55685 27932 ft 478 kts 108°
2026-04-26 14:18 29.90600 -85.52040 28163 ft 480 kts 108°
2026-04-26 14:18 29.89541 -85.48375 28449 ft 480 kts 108°
2026-04-26 14:18 29.88489 -85.44730 28766 ft 479 kts 108°
2026-04-26 14:18 29.87431 -85.41071 29066 ft 479 kts 108°
2026-04-26 14:19 29.86378 -85.37435 29367 ft 479 kts 108°
2026-04-26 14:19 29.85323 -85.33798 29651 ft 478 kts 108°
2026-04-26 14:19 29.84268 -85.30162 29964 ft 478 kts 108°
2026-04-26 14:19 29.83229 -85.26581 30210 ft 477 kts 108°
2026-04-26 14:20 29.82174 -85.22954 30438 ft 477 kts 108°
2026-04-26 14:20 29.81119 -85.19331 30645 ft 477 kts 108°
2026-04-26 14:20 29.80064 -85.15708 30847 ft 477 kts 108°
2026-04-26 14:20 29.79007 -85.12084 31058 ft 477 kts 108°
2026-04-26 14:21 29.77949 -85.08465 31258 ft 477 kts 108°
2026-04-26 14:21 29.76892 -85.04849 31450 ft 477 kts 108°
2026-04-26 14:21 29.75833 -85.01228 31640 ft 477 kts 108°
2026-04-26 14:21 29.74771 -84.97607 31820 ft 477 kts 108°
2026-04-26 14:22 29.73710 -84.93989 32001 ft 477 kts 108°
2026-04-26 14:22 29.72646 -84.90372 32172 ft 477 kts 108°
2026-04-26 14:22 29.71583 -84.86756 32346 ft 477 kts 108°
2026-04-26 14:22 29.70532 -84.83182 32513 ft 478 kts 108°
2026-04-26 14:23 29.69465 -84.79567 32680 ft 478 kts 108°
2026-04-26 14:23 29.68397 -84.75946 32840 ft 478 kts 107°
2026-04-26 14:23 29.67327 -84.72317 32912 ft 480 kts 108°
2026-04-26 14:24 29.65157 -84.64985 32965 ft 487 kts 107°
2026-04-26 14:24 29.62951 -84.57550 32977 ft 495 kts 107°
2026-04-26 14:25 29.60710 -84.50015 32981 ft 501 kts 107°
2026-04-26 14:25 29.58450 -84.42430 32986 ft 507 kts 107°
2026-04-26 14:26 29.56145 -84.34718 32985 ft 513 kts 108°
2026-04-26 14:26 29.53811 -84.26919 32975 ft 517 kts 107°
2026-04-26 14:27 29.51454 -84.19070 32984 ft 521 kts 107°
2026-04-26 14:27 29.49101 -84.11251 32973 ft 522 kts 107°
2026-04-26 14:28 29.46721 -84.03361 32982 ft 524 kts 107°
2026-04-26 14:28 29.44329 -83.95449 32984 ft 525 kts 107°
2026-04-26 14:29 29.41926 -83.87522 32986 ft 526 kts 107°
2026-04-26 14:29 29.39520 -83.79598 32986 ft 527 kts 107°
2026-04-26 14:30 29.37101 -83.71658 32979 ft 527 kts 107°
2026-04-26 14:30 29.34672 -83.63705 32984 ft 528 kts 107°
2026-04-26 14:31 29.32254 -83.55817 32978 ft 528 kts 107°
2026-04-26 14:31 29.29816 -83.47861 32973 ft 529 kts 108°
2026-04-26 14:31 29.28284 -83.44031 32982 ft 531 kts 120°
2026-04-26 14:32 29.26124 -83.40610 32987 ft 532 kts 131°
2026-04-26 14:32 29.20567 -83.35035 32986 ft 531 kts 143°
2026-04-26 14:33 29.14586 -83.30058 32983 ft 531 kts 146°
2026-04-26 14:33 29.08158 -83.26015 32985 ft 526 kts 164°
2026-04-26 14:34 29.01184 -83.23683 32980 ft 526 kts 165°
2026-04-26 14:34 28.94322 -83.20734 32977 ft 527 kts 160°
2026-04-26 14:35 28.87490 -83.17634 32983 ft 527 kts 161°
2026-04-26 14:35 28.80627 -83.14676 32980 ft 527 kts 161°
2026-04-26 14:36 28.73763 -83.11728 32980 ft 525 kts 162°
2026-04-26 14:36 28.66970 -83.08841 32981 ft 522 kts 161°
2026-04-26 14:37 28.60165 -83.05947 32979 ft 520 kts 162°
2026-04-26 14:37 28.53376 -83.03070 32977 ft 519 kts 162°
2026-04-26 14:38 28.46614 -83.00206 32982 ft 518 kts 162°
2026-04-26 14:38 28.39860 -82.97349 32983 ft 517 kts 162°
2026-04-26 14:39 28.33167 -82.94523 32982 ft 516 kts 162°
2026-04-26 14:39 28.26429 -82.91703 32984 ft 515 kts 162°
2026-04-26 14:40 28.19698 -82.88905 32984 ft 515 kts 162°
2026-04-26 14:40 28.12966 -82.86108 32984 ft 515 kts 162°
2026-04-26 14:41 28.06245 -82.83321 32988 ft 514 kts 162°
2026-04-26 14:41 27.99516 -82.80533 32988 ft 514 kts 162°
2026-04-26 14:42 27.92792 -82.77752 32986 ft 514 kts 162°
2026-04-26 14:42 27.86064 -82.74973 32979 ft 514 kts 162°
2026-04-26 14:43 27.79381 -82.72218 32968 ft 514 kts 162°
2026-04-26 14:43 27.72651 -82.69445 32970 ft 514 kts 162°
2026-04-26 14:44 27.65925 -82.66678 32970 ft 514 kts 162°
2026-04-26 14:44 27.59250 -82.63938 32973 ft 514 kts 162°
2026-04-26 14:45 27.52530 -82.61180 32995 ft 514 kts 162°
2026-04-26 14:45 27.45815 -82.58412 32995 ft 514 kts 160°
2026-04-26 14:45 27.42627 -82.56550 32996 ft 517 kts 147°
2026-04-26 14:46 27.39705 -82.54191 33004 ft 517 kts 144°
2026-04-26 14:46 27.34163 -82.49024 33001 ft 518 kts 135°
2026-04-26 14:47 27.29283 -82.43045 32998 ft 518 kts 131°
2026-04-26 14:47 27.24327 -82.37161 32994 ft 519 kts 134°
2026-04-26 14:48 27.19352 -82.31385 32995 ft 513 kts 134°
2026-04-26 14:48 27.14431 -82.25652 32989 ft 505 kts 135°
2026-04-26 14:48 27.11770 -82.23110 32862 ft 503 kts 146°
2026-04-26 14:49 27.08707 -82.21182 32378 ft 506 kts 157°
2026-04-26 14:49 27.05485 -82.19652 31906 ft 500 kts 161°
2026-04-26 14:49 27.02239 -82.18298 31450 ft 495 kts 163°
2026-04-26 14:49 26.98970 -82.17124 30992 ft 490 kts 168°
2026-04-26 14:50 26.95646 -82.16389 30544 ft 484 kts 175°
2026-04-26 14:50 26.92318 -82.15878 30102 ft 480 kts 176°
2026-04-26 14:50 26.89058 -82.15373 29594 ft 478 kts 175°
2026-04-26 14:50 26.85771 -82.14772 29127 ft 476 kts 173°
2026-04-26 14:51 26.82512 -82.14128 28673 ft 474 kts 173°
2026-04-26 14:51 26.79268 -82.13500 28224 ft 472 kts 173°
2026-04-26 14:51 26.76036 -82.12869 27781 ft 470 kts 172°
2026-04-26 14:51 26.72830 -82.12156 27350 ft 468 kts 171°
2026-04-26 14:52 26.69653 -82.11380 26926 ft 467 kts 171°
2026-04-26 14:52 26.66484 -82.10610 26505 ft 465 kts 171°
2026-04-26 14:52 26.63324 -82.09846 26089 ft 463 kts 171°
2026-04-26 14:52 26.60243 -82.09118 25688 ft 453 kts 171°
2026-04-26 14:53 26.57195 -82.08411 25280 ft 442 kts 171°
2026-04-26 14:53 26.54266 -82.07493 24873 ft 436 kts 158°
2026-04-26 14:53 26.51654 -82.05818 24481 ft 431 kts 148°
2026-04-26 14:53 26.49234 -82.03849 24096 ft 430 kts 141°
2026-04-26 14:54 26.47005 -82.01617 23715 ft 429 kts 137°
2026-04-26 14:54 26.44856 -81.99309 23289 ft 428 kts 136°
2026-04-26 14:54 26.42709 -81.97009 22837 ft 427 kts 137°
2026-04-26 14:54 26.40528 -81.94769 22399 ft 426 kts 139°
2026-04-26 14:55 26.38324 -81.92575 21964 ft 424 kts 139°
2026-04-26 14:55 26.36133 -81.90374 21530 ft 423 kts 138°
2026-04-26 14:55 26.33951 -81.88182 21230 ft 419 kts 139°
2026-04-26 14:55 26.32525 -81.86748 21131 ft 415 kts 139°
2026-04-26 14:56 26.30372 -81.84592 21059 ft 416 kts 139°
2026-04-26 14:56 26.28222 -81.82432 21017 ft 416 kts 139°
2026-04-26 14:56 26.26074 -81.80277 21002 ft 415 kts 139°
2026-04-26 14:56 26.23966 -81.78081 20955 ft 415 kts 133°
2026-04-26 14:57 26.22362 -81.75416 20567 ft 411 kts 116°
2026-04-26 14:57 26.21182 -81.72582 20190 ft 406 kts 112°
2026-04-26 14:57 26.20071 -81.69709 19811 ft 401 kts 112°
2026-04-26 14:57 26.18935 -81.66842 19430 ft 398 kts 114°
2026-04-26 14:58 26.17753 -81.64073 19061 ft 394 kts 115°
2026-04-26 14:58 26.16545 -81.61347 18696 ft 391 kts 115°
2026-04-26 14:58 26.15372 -81.58661 18338 ft 391 kts 115°
2026-04-26 14:58 26.14183 -81.55934 17941 ft 392 kts 115°
2026-04-26 14:59 26.12992 -81.53205 17539 ft 392 kts 115°
2026-04-26 14:59 26.11802 -81.50477 17139 ft 393 kts 115°
2026-04-26 14:59 26.10609 -81.47743 16766 ft 392 kts 115°
2026-04-26 14:59 26.09818 -81.45936 16518 ft 392 kts 115°
2026-04-26 15:00 26.08229 -81.42288 16031 ft 391 kts 115°
2026-04-26 15:00 26.07045 -81.39566 15671 ft 390 kts 115°
2026-04-26 15:00 26.05860 -81.36857 15307 ft 388 kts 115°
2026-04-26 15:00 26.04688 -81.34170 14957 ft 383 kts 115°
2026-04-26 15:01 26.03532 -81.31520 14600 ft 379 kts 115°
2026-04-26 15:01 26.02400 -81.28922 14251 ft 375 kts 115°
2026-04-26 15:01 26.01265 -81.26322 13899 ft 372 kts 115°
2026-04-26 15:01 26.00139 -81.23745 13510 ft 368 kts 115°
2026-04-26 15:02 25.99025 -81.21191 13143 ft 365 kts 115°
2026-04-26 15:02 25.97922 -81.18663 12763 ft 362 kts 115°
2026-04-26 15:02 25.96832 -81.16159 12392 ft 358 kts 115°
2026-04-26 15:02 25.95748 -81.13678 12024 ft 355 kts 115°
2026-04-26 15:03 25.94682 -81.11219 11650 ft 352 kts 115°
2026-04-26 15:03 25.93602 -81.08796 11321 ft 348 kts 115°
2026-04-26 15:03 25.92548 -81.06406 11133 ft 339 kts 115°
2026-04-26 15:03 25.91548 -81.04102 11045 ft 321 kts 114°
2026-04-26 15:04 25.90631 -81.01919 11028 ft 303 kts 113°
2026-04-26 15:04 25.89783 -80.99786 10617 ft 301 kts 111°
2026-04-26 15:04 25.88986 -80.97673 10197 ft 300 kts 111°
2026-04-26 15:04 25.88192 -80.95542 9766 ft 298 kts 111°
2026-04-26 15:05 25.87406 -80.93421 9298 ft 295 kts 111°
2026-04-26 15:05 25.86882 -80.92029 8993 ft 293 kts 112°
2026-04-26 15:05 25.85824 -80.89262 8512 ft 289 kts 112°
2026-04-26 15:05 25.85023 -80.87178 8239 ft 298 kts 112°
2026-04-26 15:06 25.84218 -80.85080 7977 ft 290 kts 113°
2026-04-26 15:06 25.83435 -80.83048 7725 ft 281 kts 113°
2026-04-26 15:06 25.82664 -80.81073 7465 ft 276 kts 114°
2026-04-26 15:06 25.81905 -80.79131 7220 ft 272 kts 113°
2026-04-26 15:07 25.80446 -80.75337 6713 ft 265 kts 114°
2026-04-26 15:07 25.79725 -80.73468 6451 ft 263 kts 114°
2026-04-26 15:07 25.78999 -80.71586 6184 ft 267 kts 114°
2026-04-26 15:08 25.78268 -80.69693 5911 ft 265 kts 114°
2026-04-26 15:08 25.77790 -80.68456 5719 ft 262 kts 114°
2026-04-26 15:08 25.77609 -80.67990 5642 ft 261 kts 114°
2026-04-26 15:08 25.77078 -80.66133 5345 ft 258 kts 97°
2026-04-26 15:09 25.77055 -80.64188 5066 ft 254 kts 88°
2026-04-26 15:09 25.77189 -80.62239 4760 ft 251 kts 86°
2026-04-26 15:09 25.77327 -80.60322 4487 ft 246 kts 86°
2026-04-26 15:09 25.77454 -80.58510 4273 ft 227 kts 86°
2026-04-26 15:10 25.77561 -80.56812 4056 ft 214 kts 87°
2026-04-26 15:10 25.77634 -80.55722 3873 ft 216 kts 87°
2026-04-26 15:10 25.77767 -80.53456 3550 ft 222 kts 88°
2026-04-26 15:10 25.77838 -80.51734 3300 ft 225 kts 89°
2026-04-26 15:11 25.77900 -80.50021 3182 ft 224 kts 89°
2026-04-26 15:11 25.77946 -80.48303 3061 ft 225 kts 90°
2026-04-26 15:11 25.78009 -80.46551 2814 ft 216 kts 89°
2026-04-26 15:11 25.78082 -80.44976 2610 ft 200 kts 89°
2026-04-26 15:12 25.78143 -80.43479 2344 ft 189 kts 89°
2026-04-26 15:12 25.78182 -80.42121 2024 ft 163 kts 92°
2026-04-26 15:12 25.78233 -80.40902 1902 ft 159 kts 90°
2026-04-26 15:12 25.78276 -80.39670 1689 ft 160 kts 90°
2026-04-26 15:13 25.78315 -80.38465 1414 ft 153 kts 90°
2026-04-26 15:13 25.78349 -80.37304 1140 ft 151 kts 90°
2026-04-26 15:13 25.78395 -80.36141 920 ft 151 kts 90°
2026-04-26 15:13 25.78456 -80.34967 694 ft 153 kts 90°
2026-04-26 15:14 25.78511 -80.33806 495 ft 149 kts 90°
2026-04-26 15:14 25.78562 -80.32660 307 ft 150 kts 89°
2026-04-26 15:14 25.78615 -80.31513 103 ft 148 kts 90°
2026-04-26 15:14 25.78651 -80.30467 13 ft 114 kts 88°
2026-04-26 15:15 25.78682 -80.29748 13 ft 71 kts 88°
2026-04-26 15:15 25.78694 -80.29460 12 ft 25 kts 88°
2026-04-26 15:15 25.78713 -80.29304 13 ft 16 kts 72°
2026-04-26 15:15 25.78770 -80.29191 13 ft 18 kts 45°
2026-04-26 15:16 25.78819 -80.29084 13 ft 14 kts 82°
2026-04-26 15:16 25.78837 -80.28972 13 ft 15 kts 75°
2026-04-26 15:16 25.78863 -80.28849 13 ft 17 kts 84°
2026-04-26 15:16 25.78873 -80.28721 13 ft 14 kts 70°
2026-04-26 15:17 25.78962 -80.28688 13 ft 15 kts 358°
2026-04-26 15:17 25.79034 -80.28690 13 ft 16 kts 358°
2026-04-26 15:17 25.79197 -80.28700 12 ft 18 kts 356°
2026-04-26 15:17 25.79310 -80.28702 13 ft 15 kts 356°
2026-04-26 15:18 25.79388 -80.28744 13 ft 12 kts 300°
2026-04-26 15:18 25.79446 -80.28801 13 ft 12 kts 352°
2026-04-26 15:18 25.79546 -80.28807 13 ft 17 kts 358°
2026-04-26 15:18 25.79667 -80.28814 13 ft 17 kts 356°
2026-04-26 15:19 25.79757 -80.28790 13 ft 12 kts 57°
2026-04-26 15:19 25.79749 -80.28723 13 ft 7 kts 144°
2026-04-26 15:19 25.79732 -80.28708 13 ft 0 kts 139°